• In Österreich
  • Länderverzeichnis
  • Für 7 Tage
  • Wassertemperatur
  • Satellitenkarten
  • Wetterkarte
  • News
  • Widgets
  • user-avatar
    Anmelden

    Stündliche Wetter Shkoder

    Heute, 24 September, Montag

    Zeit Temperatur Niederschläge Wind Luftdruck Luftfeuchtigkeit
    00:00 +20°C° 0 mm 2 m/S 741 mmHg 56%
    01:00 +20°C° 0 mm 2 m/S 740 mmHg 56%
    02:00 +19°C° 0 mm 2 m/S 740 mmHg 57%
    03:00 +19°C° 0 mm 2 m/S 740 mmHg 58%
    04:00 +19°C° 0 mm 2 m/S 740 mmHg 59%
    05:00 +20°C° 0 mm 2 m/S 739 mmHg 57%
    06:00 +21°C° 0 mm 2 m/S 739 mmHg 55%
    07:00 +24°C° 0 mm 2 m/S 739 mmHg 53%
    08:00 +25°C° 0 mm 3 m/S 739 mmHg 50%
    09:00 +27°C° 0 mm 3 m/S 739 mmHg 47%
    10:00 +28°C° 0 mm 3 m/S 739 mmHg 44%
    11:00 +29°C° 0.1 mm 3 m/S 740 mmHg 46%
    12:00 +29°C° 0.1 mm 3 m/S 740 mmHg 48%
    13:00 +29°C° 0.1 mm 3 m/S 740 mmHg 50%
    14:00 +27°C° 0.5 mm 3 m/S 741 mmHg 56%
    15:00 +24°C° 0.5 mm 3 m/S 741 mmHg 63%
    16:00 +21°C° 0.5 mm 4 m/S 741 mmHg 69%
    17:00 +19°C° 0.2 mm 4 m/S 742 mmHg 70%
    18:00 +16°C° 0.2 mm 5 m/S 742 mmHg 70%
    19:00 +15°C° 0.2 mm 6 m/S 743 mmHg 70%
    20:00 +14°C° 0 mm 6 m/S 743 mmHg 69%
    21:00 +14°C° 0 mm 6 m/S 744 mmHg 68%
    22:00 +14°C° 0 mm 6 m/S 745 mmHg 67%
    23:00 +13°C° 0 mm 6 m/S 745 mmHg 67%

    Morgen, 25 September, Dienstag

    Zeit Temperatur Niederschläge Wind Luftdruck Luftfeuchtigkeit
    00:00 +13°C° 0 mm 6 m/S 745 mmHg 66%
    01:00 +11°C° 0 mm 6 m/S 746 mmHg 66%
    02:00 +11°C° 0 mm 6 m/S 746 mmHg 65%
    03:00 +10°C° 0 mm 6 m/S 746 mmHg 65%
    04:00 +10°C° 0 mm 6 m/S 746 mmHg 64%
    05:00 +10°C° 0 mm 6 m/S 746 mmHg 61%
    06:00 +10°C° 0 mm 6 m/S 747 mmHg 58%
    07:00 +11°C° 0 mm 6 m/S 747 mmHg 55%
    08:00 +13°C° 0 mm 6 m/S 747 mmHg 49%
    09:00 +15°C° 0 mm 6 m/S 747 mmHg 42%
    10:00 +17°C° 0 mm 6 m/S 747 mmHg 35%
    11:00 +19°C° 0 mm 6 m/S 747 mmHg 33%
    12:00 +20°C° 0 mm 5 m/S 747 mmHg 31%
    13:00 +21°C° 0 mm 5 m/S 747 mmHg 29%
    14:00 +20°C° 0 mm 5 m/S 747 mmHg 30%
    15:00 +20°C° 0 mm 5 m/S 747 mmHg 32%
    16:00 +19°C° 0 mm 6 m/S 746 mmHg 33%
    17:00 +16°C° 0 mm 6 m/S 747 mmHg 38%
    18:00 +14°C° 0 mm 6 m/S 748 mmHg 43%
    19:00 +11°C° 0 mm 6 m/S 748 mmHg 48%
    20:00 +10°C° 0 mm 6 m/S 749 mmHg 50%
    21:00 +9°C° 0 mm 6 m/S 749 mmHg 52%
    22:00 +9°C° 0 mm 6 m/S 750 mmHg 53%
    23:00 +8°C° 0 mm 6 m/S 750 mmHg 54%

    übermorgen, 26 September, Mittwoch

    Zeit Temperatur Niederschläge Wind Luftdruck Luftfeuchtigkeit
    00:00 +8°C° 0 mm 6 m/S 750 mmHg 55%
    01:00 +8°C° 0 mm 6 m/S 750 mmHg 55%
    02:00 +7°C° 0 mm 6 m/S 750 mmHg 56%
    03:00 +7°C° 0 mm 5 m/S 750 mmHg 57%
    04:00 +7°C° 0 mm 5 m/S 750 mmHg 58%
    05:00 +7°C° 0 mm 6 m/S 751 mmHg 54%
    06:00 +8°C° 0 mm 6 m/S 751 mmHg 50%
    07:00 +9°C° 0 mm 6 m/S 751 mmHg 46%
    08:00 +11°C° 0 mm 6 m/S 751 mmHg 39%
    09:00 +14°C° 0 mm 6 m/S 751 mmHg 33%
    10:00 +16°C° 0 mm 6 m/S 751 mmHg 27%
    11:00 +17°C° 0 mm 5 m/S 751 mmHg 25%
    12:00 +19°C° 0 mm 5 m/S 751 mmHg 24%
    13:00 +20°C° 0 mm 4 m/S 750 mmHg 22%
    14:00 +19°C° 0 mm 4 m/S 750 mmHg 23%
    15:00 +19°C° 0 mm 4 m/S 750 mmHg 24%
    16:00 +18°C° 0 mm 4 m/S 750 mmHg 25%
    17:00 +15°C° 0 mm 4 m/S 750 mmHg 30%
    18:00 +13°C° 0 mm 4 m/S 751 mmHg 36%
    19:00 +10°C° 0 mm 4 m/S 751 mmHg 41%
    20:00 +10°C° 0 mm 4 m/S 752 mmHg 44%
    21:00 +8°C° 0 mm 4 m/S 752 mmHg 46%
    22:00 +8°C° 0 mm 4 m/S 752 mmHg 49%
    23:00 +7°C° 0 mm 4 m/S 752 mmHg 50%

    27 September, Donnerstag

    Zeit Temperatur Niederschläge Wind Luftdruck Luftfeuchtigkeit
    00:00 +7°C° 0 mm 4 m/S 752 mmHg 51%
    01:00 +7°C° 0 mm 4 m/S 752 mmHg 53%
    02:00 +7°C° 0 mm 4 m/S 751 mmHg 52%
    03:00 +7°C° 0 mm 4 m/S 751 mmHg 51%
    04:00 +7°C° 0 mm 4 m/S 750 mmHg 51%
    05:00 +8°C° 0 mm 4 m/S 750 mmHg 46%
    06:00 +10°C° 0 mm 4 m/S 750 mmHg 42%
    07:00 +11°C° 0 mm 4 m/S 750 mmHg 38%
    08:00 +14°C° 0 mm 4 m/S 749 mmHg 33%
    09:00 +17°C° 0 mm 4 m/S 749 mmHg 27%
    10:00 +20°C° 0 mm 4 m/S 749 mmHg 21%
    11:00 +21°C° 0 mm 4 m/S 748 mmHg 21%
    12:00 +22°C° 0 mm 4 m/S 747 mmHg 20%
    13:00 +23°C° 0 mm 4 m/S 747 mmHg 20%
    14:00 +22°C° 0 mm 4 m/S 746 mmHg 21%
    15:00 +22°C° 0 mm 4 m/S 746 mmHg 23%
    16:00 +22°C° 0 mm 4 m/S 745 mmHg 25%
    17:00 +19°C° 0 mm 4 m/S 745 mmHg 29%
    18:00 +17°C° 0 mm 4 m/S 745 mmHg 34%
    19:00 +14°C° 0 mm 3 m/S 746 mmHg 38%
    20:00 +13°C° 0 mm 4 m/S 745 mmHg 39%
    21:00 +12°C° 0 mm 4 m/S 745 mmHg 40%
    22:00 +12°C° 0 mm 4 m/S 745 mmHg 40%
    23:00 +12°C° 0 mm 4 m/S 745 mmHg 40%

    28 September, Freitag

    Zeit Temperatur Niederschläge Wind Luftdruck Luftfeuchtigkeit
    00:00 +11°C° 0 mm 4 m/S 745 mmHg 40%
    01:00 +11°C° 0 mm 4 m/S 744 mmHg 40%
    02:00 +11°C° 0 mm 4 m/S 744 mmHg 40%
    03:00 +11°C° 0 mm 4 m/S 744 mmHg 41%
    04:00 +11°C° 0 mm 4 m/S 743 mmHg 41%
    05:00 +12°C° 0 mm 4 m/S 743 mmHg 40%
    06:00 +13°C° 0 mm 4 m/S 743 mmHg 40%
    07:00 +14°C° 0 mm 4 m/S 743 mmHg 39%
    08:00 +17°C° 0 mm 4 m/S 742 mmHg 36%
    09:00 +20°C° 0 mm 4 m/S 742 mmHg 32%
    10:00 +22°C° 0 mm 4 m/S 742 mmHg 29%
    11:00 +24°C° 0 mm 3 m/S 741 mmHg 27%
    12:00 +25°C° 0 mm 3 m/S 741 mmHg 25%
    13:00 +26°C° 0 mm 3 m/S 740 mmHg 24%
    14:00 +26°C° 0 mm 3 m/S 740 mmHg 25%
    15:00 +25°C° 0 mm 3 m/S 740 mmHg 27%
    16:00 +25°C° 0 mm 3 m/S 739 mmHg 29%
    17:00 +21°C° 0 mm 3 m/S 740 mmHg 34%
    18:00 +19°C° 0 mm 3 m/S 740 mmHg 40%
    19:00 +16°C° 0 mm 3 m/S 740 mmHg 45%
    20:00 +16°C° 0 mm 3 m/S 740 mmHg 47%
    21:00 +14°C° 0 mm 3 m/S 740 mmHg 49%
    22:00 +14°C° 0 mm 3 m/S 740 mmHg 50%
    23:00 +13°C° 0 mm 3 m/S 740 mmHg 53%

    29 September, Samstag

    Zeit Temperatur Niederschläge Wind Luftdruck Luftfeuchtigkeit
    00:00 +13°C° 0 mm 3 m/S 740 mmHg 56%
    01:00 +13°C° 0 mm 3 m/S 740 mmHg 58%
    02:00 +13°C° 0 mm 3 m/S 740 mmHg 59%
    03:00 +12°C° 0 mm 3 m/S 740 mmHg 60%
    04:00 +12°C° 0 mm 3 m/S 739 mmHg 61%
    05:00 +13°C° 0 mm 3 m/S 740 mmHg 58%
    06:00 +14°C° 0 mm 3 m/S 740 mmHg 56%
    07:00 +16°C° 0 mm 2 m/S 740 mmHg 53%
    08:00 +18°C° 0 mm 2 m/S 740 mmHg 46%
    09:00 +21°C° 0 mm 2 m/S 740 mmHg 38%
    10:00 +25°C° 0 mm 1 m/S 740 mmHg 31%
    11:00 +25°C° 0 mm 2 m/S 739 mmHg 29%
    12:00 +26°C° 0 mm 2 m/S 739 mmHg 28%
    13:00 +27°C° 0 mm 2 m/S 739 mmHg 27%
    14:00 +26°C° 0 mm 3 m/S 739 mmHg 29%
    15:00 +26°C° 0 mm 3 m/S 739 mmHg 32%
    16:00 +25°C° 0 mm 3 m/S 739 mmHg 34%
    17:00 +22°C° 0 mm 3 m/S 740 mmHg 41%
    18:00 +20°C° 0 mm 3 m/S 740 mmHg 47%
    19:00 +18°C° 0 mm 3 m/S 741 mmHg 54%
    20:00 +17°C° 0 mm 3 m/S 741 mmHg 55%
    21:00 +17°C° 0 mm 3 m/S 741 mmHg 57%
    22:00 +16°C° 0 mm 3 m/S 741 mmHg 58%
    23:00 +16°C° 0 mm 3 m/S 742 mmHg 60%
    Mehr zeigen